SCP
0 0 0 0 0 0 0 0 0 0 0 0 0 0 0 0 0 0 0 0 0 0 0 0 0 0 0 0 0 0 0 0 0 0 0 0 0 0 0 0 0 0 0
0 0 0 0 0 0 0 0 0 0 0 0 0 0 0 0 0 0 0 0 0 0 0 0 0 0 0 0 0 0 0 0 0 0 0 0 0 0 0 0 0 0 0
0 0 0 0 0 0 0 0 0 0 0 0 0 0 0 0 0 0 0 0 0 0 0 0 0 0 0 0 0 0 0 0 0 0 0 0 0 0 0 0 0 0 0
0 0 0 0 0 0 0 0 0 0 0 0 0 0 0 0 0 0 0 0 0 0 0 0 0 0 0 0 0 0 0 0 0 0 0 0 0 0 0 0 0 0 0
0 0 0 0 0 0 0 0 0 0 0 0 0 0 0 0 0 0 0 0 0 0 0 0 0 0 0 0 0 0 0 0 0 0 0 0 0 0 0 0 0 0 0
0 0 0 0 0 0 0 0 0 0 0 0 0 0 0 0 0 0 0 0 0 0 0 0 0 0 0 0 0 0 0 0 0 0 0 0 0 0 0 0 0 0 0
0 0 0 0 0 0 0 0 0 0 0 0 0 0 0 0 0 0 0 0 0 0 0 0 0 0 0 0 0 0 0 0 0 0 0 0 0 0 0 0 0 0 0
0 0 0 0 0 0 0 0 0 0 0 0 0 0 0 0 0 0 0 0 0 0 0 0 0 0 0 0 0 0 0 0 0 0 0 0 0 0 0 0 0 0 0
0 0 0 0 0 0 0 0 0 0 0 0 0 0 0 0 0 0 0 0 0 0 0 0 0 0 0 0 0 0 0 0 0 0 0 0 0 0 0 0 0 0 0
0 0 0 0 0 0 0 0 0 0 0 0 0 0 0 0 0 0 0 0 0 0 0 0 0 0 0 0 0 0 0 0 0 0 0 0 0 0 0 0 0 0 0
0 0 0 0 0 0 0 0 0 0 0 0 0 0 0 0 0 0 0 0 0 0 0 0 0 0 0 0 0 0 0 0 0 0 0 0 0 0 0 0 0 0 0
0 0 0 0 0 0 0 0 0 0 0 0 0 0 0 0 0 0 0 0 0 0 0 0 0 0 0 0 0 0 0 0 0 0 0 0 0 0 0 0 0 0 0
0 0 0 0 0 0 0 0 0 0 0 0 0 0 0 0 0 0 0 0 0 0 0 0 0 0 0 0 0 0 0 0 0 0 0 0 0 0 0 0 0 0 0
0 0 0 0 0 0 0 0 0 0 0 0 0 0 0 0 0 0 0 0 0 0 0 0 0 0 0 0 0 0 0 0 0 0 0 0 0 0 0 0 0 0 0
0 0 0 0 0 0 0 0 0 0 0 0 0 0 0 0 0 0 0 0 0 0 0 0 0 0 0 0 0 0 0 0 0 0 0 0 0 0 0 0 0 0 0
0 0 0 0 0 0 0 0 0 0 0 0 0 0 0 0 0 0 0 0 0 0 0 0 0 0 0 0 0 0 0 0 0 0 0 0 0 0 0 0 0 0 0
0 0 0 0 0 0 0 0 0 0 0 0 0 0 0 0 0 0 0 0 0 0 0 0 0 0 0 0 0 0 0 0 0 0 0 0 0 0 0 0 0 0 0
0 0 0 0 0 0 0 0 0 0 0 0 0 0 0 0 0 0 0 0 0 0 0 0 0 0 0 0 0 0 0 0 0 0 0 0 0 0 0 0 0 0 0
0 0 0 0 0 0 0 0 0 0 0 0 0 0 0 0 0 0 0 0 0 0 0 0 0 0 0 0 0 0 0 0 0 0 0 0 0 0 0 0 0 0 0
-0 -0 -0 -0 -0 -0 0 0 0 0 0 0 0 0 0 0 0 0 0 0 0 0 0 0 0 0 0 0 0 0 0 0 0 0 0 0 0 0 0 0 0 0 0
0 0 0 0 0 0 0 0 0 0 0 0 0 0 0 0 0 0 0 0 0 0 0 0 0 0 0 0 0 0 0 0 0 0 0 0 0 0 0 0 0 0 0
0 0 0 0 0 0 0 0 0 0 0 0 0 0 0 0 0 0 0 0 0 0 0 0 0 0 0 0 0 0 0 0 0 0 0 0 0 0 0 0 0 0 0
0 0 0 0 0 0 0 0 0 0 0 0 0 0 0 0 0 0 0 0 0 0 0 0 0 0 0 0 0 0 0 0 0 0 0 0 0 0 0 0 0 0 0
0 0 0 0 0 0 0 0 0 0 0 0 0 0 0 0 0 0 0 0 0 0 0 0 0 0 0 0 0 0 0 0 0 0 0 0 0 0 0 0 0 0 0
0 0 0 0 0 0 0 0 0 0 0 0 0 0 0 0 0 0 0 0 0 0 0 0 0 0 0 0 0 0 0 0 0 0 0 0 0 0 0 0 0 0 0
0 0 0 0 0 0 0 0 0 0 0 0 0 0 0 0 0 0 0 0 0 0 0 0 0 0 0 0 0 0 0 0 0 0 0 0 0 0 0 0 0 0 0
Wind_Speed
5 4 4 4 4 3 4 4 4 4 3 3 3 4 3 3 3 2 1 2 2 4 6 7 7 7 7 7 8 7 7 6 5 4 4 6 7 7 8 8 8 8 8
6 6 5 5 4 4 4 4 5 4 3 2 3 3 3 3 3 3 2 1 2 2 4 6 7 8 8 8 8 9 8 7 5 4 3 4 6 7 7 7 6 6 6
7 6 6 6 6 5 4 3 3 2 2 2 3 3 3 3 3 3 3 2 1 3 3 1 4 7 9 9 9 9 9 8 6 5 3 3 5 6 5 4 4 3 4
7 6 5 6 6 6 5 4 3 3 2 2 2 2 2 2 3 3 3 3 2 0 2 2 3 3 7 10 10 10 9 8 7 5 4 4 4 5 4 4 3 3 3
6 5 5 5 6 6 5 5 3 3 3 3 2 2 2 2 3 3 4 4 3 3 1 2 3 3 3 8 10 11 10 9 8 6 5 4 4 4 4 4 4 3 3
3 3 3 4 5 4 4 4 4 3 2 3 1 1 3 4 3 4 4 3 3 4 3 2 2 3 4 5 10 12 12 10 9 8 7 6 6 5 5 5 5 5 5
3 2 1 3 4 4 5 6 4 4 2 3 2 2 3 4 5 4 4 4 4 4 4 4 3 3 3 6 10 13 13 13 12 10 9 8 8 7 7 7 6 6 6
7 4 3 1 1 2 3 4 4 3 3 4 4 1 3 5 5 5 4 5 5 4 5 5 5 4 4 3 6 13 15 15 14 13 11 10 9 9 9 8 8 7 7
10 8 6 3 2 1 2 4 5 6 4 4 3 4 4 6 4 3 5 5 5 4 5 4 6 6 5 4 4 10 14 16 16 15 13 12 11 11 10 10 9 8 7
13 12 10 7 4 2 3 3 4 3 4 4 4 3 3 2 2 5 4 3 5 6 6 6 6 6 6 5 6 9 10 12 14 15 15 14 13 12 12 11 10 9 9
13 14 12 10 8 5 4 4 3 4 4 5 5 4 4 3 3 3 5 4 4 6 7 7 6 6 7 6 6 9 11 12 13 14 15 14 14 14 13 12 12 11 10
9 14 12 10 9 7 6 6 4 4 4 6 6 5 5 4 4 5 7 5 5 5 5 5 7 7 6 7 9 13 14 16 17 16 16 16 15 15 15 14 14 13 12
7 11 11 10 9 8 7 6 5 5 5 6 7 7 7 7 4 4 4 4 5 4 3 4 7 6 7 7 9 16 16 19 20 19 19 18 17 17 16 16 15 14 13
5 8 9 9 9 9 9 7 5 5 5 5 8 8 7 7 6 7 6 5 6 5 4 6 4 7 8 8 13 20 13 21 22 22 21 20 19 19 18 17 16 15 14
6 8 8 9 9 9 9 8 6 6 6 5 6 7 7 6 6 7 7 7 8 10 10 7 6 7 10 8 15 12 10 21 24 24 23 22 21 21 20 19 18 17 16
6 7 8 8 9 9 8 8 7 7 7 7 5 7 7 6 6 6 7 7 8 10 13 5 9 7 9 10 16 11 13 22 23 24 24 23 23 22 21 21 19 18 17
7 7 8 9 9 9 8 7 8 9 9 9 8 8 8 8 7 6 6 7 8 8 14 8 5 6 8 10 9 10 9 12 12 23 24 24 24 23 23 22 21 20 19
6 7 7 8 9 10 9 9 10 10 10 11 11 9 10 8 9 7 7 8 8 8 11 14 7 6 10 10 12 12 10 11 9 20 26 25 25 25 24 23 22 21 20
7 7 7 8 9 10 10 10 10 11 11 11 11 11 11 9 11 8 9 9 7 8 9 11 10 6 7 5 7 8 8 7 8 14 23 26 26 26 26 25 24 22 20
7 8 8 9 9 10 11 12 12 12 12 12 12 12 12 11 12 11 10 10 9 9 9 11 10 6 6 4 6 8 8 9 9 10 17 20 22 25 27 26 25 22 22
9 9 11 11 10 10 10 11 12 12 13 15 14 13 13 16 19 16 13 10 9 10 9 10 11 7 8 6 8 7 11 9 10 10 11 11 11 12 17 24 25 24 25
11 12 13 13 15 14 21 27 23 16 16 17 18 16 15 15 20 26 28 26 21 15 13 12 12 13 12 11 7 8 9 9 11 10 10 11 10 14 13 13 23 29 29
14 15 15 15 17 19 27 29 28 21 19 18 19 18 17 15 15 14 20 27 25 27 28 19 18 19 14 9 11 12 12 13 10 7 10 13 13 17 13 16 29 31 31
13 14 16 16 18 19 27 29 29 22 19 20 19 20 20 20 18 20 18 18 18 19 21 17 18 18 14 9 11 15 15 14 8 7 13 11 11 14 11 12 27 32 31
13 13 14 14 15 17 26 29 29 16 16 19 19 19 20 20 26 30 24 21 21 20 24 30 30 28 28 25 16 9 12 11 13 11 10 8 5 7 8 11 16 29 31
13 14 14 13 15 15 24 28 28 13 14 15 15 17 21 24 27 29 21 19 21 20 16 15 20 24 22 22 26 18 15 15 10 11 12 10 5 6 5 6 9 11 18
Wind_Direction
177 171 177 176 175 165 164 160 163 173 185 188 185 173 165 167 179 190 252 257 262 259 237 218 208 209 210 208 198 177 160 140 112 82 70 72 69 67 62 54 51 52 56
178 174 177 179 179 177 172 169 173 177 191 194 195 183 178 178 184 188 205 277 348 331 263 230 220 216 213 207 193 178 165 150 132 121 98 87 79 74 67 58 52 50 53
184 179 178 183 182 172 163 158 165 162 185 204 207 195 188 196 195 194 198 207 319 6 14 324 254 230 217 204 191 179 170 162 155 146 135 130 114 105 97 87 81 76 71
180 174 176 186 177 166 162 165 164 173 202 216 224 227 211 208 208 202 194 193 199 288 353 359 340 276 229 208 194 187 177 167 163 161 165 154 139 131 133 132 125 118 117
175 173 180 180 171 170 170 169 163 166 187 211 232 258 261 240 228 219 203 192 192 195 224 293 323 320 263 215 204 196 185 178 174 175 178 173 167 170 169 162 158 160 160
158 161 165 162 159 162 167 172 165 163 165 168 184 275 286 272 257 238 220 206 202 200 205 230 270 295 281 229 210 203 199 191 187 188 188 190 192 193 191 190 191 191 187
49 77 108 144 161 177 186 181 153 166 158 130 110 319 305 279 263 249 234 224 218 208 204 215 228 245 267 240 219 213 211 201 197 196 197 199 199 202 204 206 205 202 197
31 31 33 27 195 182 171 173 164 160 174 162 147 146 288 298 262 238 230 226 223 214 214 215 220 230 237 241 236 222 219 212 204 200 203 205 206 207 208 208 206 203 200
20 21 21 20 350 281 219 206 195 183 194 202 183 166 195 248 292 278 241 231 221 218 220 217 220 225 225 228 235 231 226 222 209 203 206 207 209 211 212 208 205 202 199
21 16 12 10 4 337 295 255 228 221 202 210 221 221 204 200 249 302 298 262 238 230 223 218 219 222 219 219 225 226 219 209 201 201 205 209 211 213 212 208 203 201 199
20 17 13 9 2 350 328 305 272 245 231 226 217 214 217 209 189 224 280 294 275 244 227 219 215 218 215 211 217 219 207 195 189 193 202 209 214 214 212 208 204 202 200
12 12 8 10 5 358 344 327 306 278 261 253 248 233 224 219 207 206 241 250 256 263 241 225 222 221 213 209 214 213 206 200 196 197 203 209 215 216 214 210 205 202 200
8 2 2 1 1 355 349 342 329 310 289 273 264 259 249 241 219 214 233 254 260 271 275 244 229 221 217 209 214 212 210 207 206 205 206 209 213 216 216 212 207 204 202
355 354 355 355 354 353 352 348 335 318 305 292 284 276 270 260 241 234 233 235 263 270 257 254 250 223 222 212 216 212 215 213 212 211 209 210 212 214 214 214 210 205 203
351 350 349 350 347 347 347 344 335 323 313 294 283 279 277 273 261 252 243 227 238 260 259 222 233 227 222 215 217 213 210 217 215 214 212 210 211 212 213 213 211 207 204
341 339 340 338 336 335 338 339 330 323 317 304 290 280 276 271 265 256 251 245 237 250 264 225 222 222 215 216 219 215 214 217 219 217 214 211 210 212 212 212 212 209 206
331 331 329 327 325 322 324 323 317 315 313 308 303 292 282 275 271 262 252 251 250 245 262 261 230 218 211 216 217 212 208 210 217 218 216 213 211 211 212 213 212 210 208
310 309 310 312 313 315 315 312 308 306 301 300 299 296 289 285 275 268 259 253 251 246 257 268 252 222 219 215 215 213 208 210 212 218 218 217 215 213 213 213 213 211 209
297 295 293 294 297 300 303 302 299 296 291 288 288 287 286 284 282 275 266 263 257 250 248 260 260 230 224 211 210 215 207 204 207 220 222 221 219 217 214 213 212 210 208
296 293 289 286 286 288 291 291 292 291 288 285 282 279 277 274 275 275 274 269 264 258 251 255 257 233 220 206 200 205 207 203 210 211 224 225 223 221 219 216 213 210 207
307 302 300 297 293 289 288 289 291 289 288 287 283 278 274 271 269 272 272 270 265 264 259 257 256 236 220 206 212 195 210 203 216 208 215 219 216 217 216 219 212 208 207
313 309 305 302 299 297 302 304 302 297 291 287 285 284 280 275 274 276 275 273 267 262 258 255 257 249 240 221 212 204 205 197 220 202 201 219 210 219 217 214 213 208 207
310 306 304 303 301 302 305 305 303 300 293 288 287 285 283 280 280 278 278 277 274 268 262 256 254 252 249 224 212 215 211 212 217 168 184 220 213 224 215 216 214 211 206
305 304 305 304 300 301 307 308 306 300 291 287 286 285 284 283 281 282 280 273 267 264 261 258 256 257 251 235 220 220 217 221 220 188 183 211 208 218 213 211 217 213 209
301 298 296 297 298 302 304 303 299 292 286 286 286 284 283 283 282 282 279 274 272 268 268 262 255 256 255 249 233 220 217 212 223 212 193 210 207 197 202 210 215 216 212
295 297 296 296 294 293 296 298 298 291 288 288 288 286 285 285 286 286 280 274 270 268 265 264 261 260 257 252 242 227 219 220 221 217 193 194 180 159 198 207 201 208 212